				
					
						
					 | 
				
			
		
			
			
				
				
					
						 
					 | 
				
				
				
					
						
					 | 
				
				
				
					
					
					Asteroid 2013 AT27
					
					
					
					
						
					
					
						
							(Preview)
						
						
						
						
							
						
							
								Orbital elements:
2013 AT27                                                Earth MOID = 0.0237 AU
Epoch 2012 Sept. 30.0 TT = JDT 2456200.5                MPC
M 340.83237              (2000.0)            P               Q
n   0.93620132     Peri.   76.55946     +0.98249421     -0.16271928
a   1.0348797      Node   292.74496     +0.10861399     +0.89591757
e   0.2082974      Incl.    5.64442     +0.15135433     +0.41334507
P   1.05           H   25.9... 
							 
							
						 
						
					
				 | 
				
					
						Blobrana
					 | 
				
				
					
						0
					 | 
				
				
				
					
						
					 | 
				
				
					
						
					 | 
				
			
		
			
			
				
				
					
						 
					 | 
				
				
				
					
						
					 | 
				
				
				
					
					
					Asteroid 2013 AR27
					
					
					
					
						
					
					
						
							(Preview)
						
						
						
						
							
						
							
								Orbital elements:
2013 AR27                                                Earth MOID = 0.2017 AU
Epoch 2012 Sept. 30.0 TT = JDT 2456200.5                MPC
M 279.32139              (2000.0)            P               Q
n   0.46335976     Peri.   87.49037     -0.91176918     +0.15895793
a   1.6539556      Node   101.46267     -0.28218927     -0.91241377
e   0.4475140      Incl.   22.73076     +0.29840606     -0.37713856
P   2.13           H   21.... 
							 
							
						 
						
					
				 | 
				
					
						Blobrana
					 | 
				
				
					
						0
					 | 
				
				
				
					
						
					 | 
				
				
					
						
					 | 
				
			
		
			
			
				
				
					
						 
					 | 
				
				
				
					
						
					 | 
				
				
				
					
					
					Asteroid 2013 AP27
					
					
					
					
						
					
					
						
							(Preview)
						
						
						
						
							
						
							
								Orbital elements:
2013 AP27                                                Earth MOID = 0.3340 AU
Epoch 2012 Sept. 30.0 TT = JDT 2456200.5                MPC
M   4.20234              (2000.0)            P               Q
n   0.27013568     Peri.   96.28515     +0.77876748     -0.60957272
a   2.3699986      Node   301.37599     +0.48477169     +0.73466237
e   0.4664499      Incl.    9.99141     +0.39814272     +0.29781253
P   3.65           H   19.6           G   0... 
							 
							
						 
						
					
				 | 
				
					
						Blobrana
					 | 
				
				
					
						0
					 | 
				
				
				
					
						
					 | 
				
				
					
						
					 | 
				
			
		
			
			
				
				
					
						 
					 | 
				
				
				
					
						
					 | 
				
				
				
					
					
					Asteroid 2013 AO27
					
					
					
					
						
					
					
						
							(Preview)
						
						
						
						
							
						
							
								Orbital elements:
2013 AO27                                                Earth MOID = 0.0589 AU
Epoch 2012 Sept. 30.0 TT = JDT 2456200.5                MPC
M 347.91975              (2000.0)            P               Q
n   0.25414465     Peri.  189.65708     +0.84855059     +0.52667973
a   2.4683992      Node   138.43254     -0.48021167     +0.80681383
e   0.8772400      Incl.    4.38229     -0.22216806     +0.26769367
P   3.88           H   19.... 
							 
							
						 
						
					
				 | 
				
					
						Blobrana
					 | 
				
				
					
						0
					 | 
				
				
				
					
						
					 | 
				
				
					
						
					 |